Location: Fairmont
(43.6520°N, 94.4610°W)
Time: 16:55:49
(UTC-05:00)

Cosmos-2242 - Visible Passes

Search period start: 30 September 2014 00:00
Search period end: 10 October 2014 00:00
Orbit: 596 x 624 km, 82.5° (Epoch: 30 September)

Date Brightness Start Highest point End Pass type
(mag) Time Alt. Az. Time Alt. Az. Time Alt. Az.
30 Sep 2.8 05:13:41 10° N 05:18:00 80° W 05:22:15 10° S visible
30 Sep 6.2 19:24:37 10° W 19:26:54 14° WNW 19:29:10 10° NW visible
01 Oct 5.7 03:51:47 10° NNE 03:54:32 16° ENE 03:55:16 16° E visible
01 Oct 3.3 05:28:23 10° NNW 05:32:03 43° WNW 05:32:03 43° WNW visible
02 Oct 5.3 04:05:37 10° NNE 04:07:42 21° NE 04:07:42 21° NE visible
02 Oct 4.8 05:43:19 10° NNW 05:44:33 17° NW 05:44:33 17° NW visible
03 Oct 5.5 04:19:48 10° N 04:20:47 16° N 04:20:47 16° N visible
